Find Starlink 31083

NORAD ID: 58670 Int'l Des: 2023-211 Owner: SPXS Country: US Constellation: starlink operational
LEOCIRCULAR

Live Position

Loading 3D Globe...

About Starlink 31083

Description loading...

Upcoming Passes

Passes for default location (London). Set your location on the main map for personalized predictions.

Altitude History

Loading altitude history...

Two-Line Element Set

1 58670U 23211D 26133.12763652 .00000336 00000-0 21731-4 0 9992
2 58670 43.0028 81.0186 0001028 271.1441 88.9293 15.27575562132325
Epoch: May 13, 2026 • Age: 10 hours

Current Status

Altitude 488.1 km
Velocity 7.62 km/s
Sub-Earth Point -23.00°S, 147.03°W
Launch Date Dec 29, 2023
Age 2.3 years
Type internet

Technical Details

Classification Payload
Mass 730.00 kg
Dry Mass 700.00 kg
Total Mass 730.00 kg
Length 0.30 m
Diameter 4.10 m
Span 29.00 m
Shape Box + pan
Manufacturer SPXS
Bus Type Starlink V2M
Phase Status In Orbit
Owner/State SPXS/US

Most Searched